AG3T Weather Reports


time (UTC)temp
C
wind
direction
speed
KPH
gust
KPH
rain 1hr
cm
rain 24hr
cm
rain mn
cm
humidity
%
barometer
mb
20260504141001 18 360 0.0 3.2 0.00 0.00 0.00 49 1013.9
20260504130459 16 360 1.6 4.8 0.00 0.00 0.00 51 1014.1
20260504110459 6 360 0.0 0.0 0.00 0.00 0.00 83 1014.6
20260504081458 -17 0.0 0.0 0.00 0.00 0.00 1014.7
20260504080958 -17 0.0 0.0 0.00 0.00 0.00 1014.7
20260504050458 5 360 0.0 0.0 0.00 0.00 0.00 76 1014.6
20260504050000 5 360 0.0 0.0 0.00 0.00 0.00 76 1014.6
20260504044500 5 360 0.0 0.0 0.00 0.00 0.00 76 1014.5
20260504043500 6 360 0.0 0.0 0.00 0.00 0.00 75 1014.6
20260504043001 6 360 0.0 0.0 0.00 0.00 0.00 76 1014.5
20260504042000 6 360 0.0 0.0 0.00 0.00 0.00 74 1014.5
20260504041500 6 360 0.0 0.0 0.00 0.00 0.00 76 1014.4
20260504041001 6 360 0.0 0.0 0.00 0.00 0.00 76 1014.4
20260504040500 6 360 0.0 0.0 0.00 0.00 0.00 76 1014.5
20260504040004 6 360 0.0 0.0 0.00 0.00 0.00 77 1014.4
20260504035500 6 360 0.0 0.0 0.00 0.00 0.00 76 1014.3
20260504035001 6 360 0.0 0.0 0.00 0.00 0.00 75 1014.3
20260504034001 6 360 0.0 0.0 0.00 0.00 0.00 74 1014.2
20260504033500 6 360 0.0 0.0 0.00 0.00 0.00 74 1014.1
20260504033001 6 360 0.0 0.0 0.00 0.00 0.00 74 1014.0
20260504032500 6 360 0.0 0.0 0.00 0.00 0.00 74 1014.0
20260504032001 6 360 0.0 0.0 0.00 0.00 0.00 72 1013.9
20260504031500 7 360 0.0 0.0 0.00 0.00 0.00 73 1014.0
20260504031000 7 360 0.0 0.0 0.00 0.00 0.00 72 1013.9
20260504030007 7 360 0.0 0.0 0.00 0.00 0.00 73 1013.9
20260504025500 7 360 0.0 0.0 0.00 0.00 0.00 71 1013.9
20260504025000 7 360 0.0 0.0 0.00 0.00 0.00 72 1014.0
20260504024500 7 360 0.0 0.0 0.00 0.00 0.00 70 1014.0
20260504024001 7 360 0.0 0.0 0.00 0.00 0.00 72 1013.9
20260504023500 7 360 0.0 0.0 0.00 0.00 0.00 72 1014.1
20260504022000 7 360 0.0 0.0 0.00 0.00 0.00 72 1014.1
20260504021001 7 360 0.0 0.0 0.00 0.00 0.00 69 1014.1
20260504020500 7 360 0.0 0.0 0.00 0.00 0.00 69 1014.0
20260504015001 8 360 0.0 0.0 0.00 0.00 0.00 69 1013.9
20260504014500 8 360 0.0 0.0 0.00 0.00 0.00 67 1013.9
20260504014002 8 360 0.0 0.0 0.00 0.00 0.00 66 1013.9
20260504013500 8 360 0.0 0.0 0.00 0.00 0.00 66 1013.9
20260504013001 8 360 0.0 0.0 0.00 0.00 0.00 66 1013.8
20260504012500 9 360 0.0 0.0 0.00 0.00 0.00 65 1013.8
20260504012001 9 360 0.0 0.0 0.00 0.00 0.00 65 1013.7
20260504011500 9 360 0.0 0.0 0.00 0.00 0.00 65 1013.6
20260504010501 10 360 0.0 0.0 0.00 0.00 0.00 64 1013.6
20260504010004 10 360 0.0 0.0 0.00 0.00 0.00 60 1013.7
20260504005500 10 360 0.0 0.0 0.00 0.00 0.00 60 1013.6
20260504005001 10 360 0.0 0.0 0.00 0.00 0.00 60 1013.5
20260504004500 11 360 0.0 0.0 0.00 0.00 0.00 59 1013.5
20260504004000 11 360 0.0 0.0 0.00 0.00 0.00 58 1013.4
20260504003500 11 360 0.0 0.0 0.00 0.00 0.00 55 1013.3
20260504002500 11 360 0.0 0.0 0.00 0.00 0.00 55 1013.0
20260504002001 11 360 0.0 0.0 0.00 0.00 0.00 53 1013.0
20260504001500 12 360 0.0 3.2 0.00 0.00 0.00 50 1012.9
20260504001001 12 360 0.0 3.2 0.00 0.00 0.00 49 1013.0
20260504000500 12 360 0.0 0.0 0.00 0.00 0.00 48 1012.8
20260504000003 12 360 0.0 3.2 0.00 0.00 0.00 48 1012.9
20260503234501 12 360 0.0 3.2 0.00 0.00 0.00 47 1012.8
20260503233500 13 360 0.0 1.6 0.00 0.00 0.00 46 1012.8
20260503233001 13 360 0.0 3.2 0.00 0.00 0.00 46 1012.7
20260503232001 13 360 0.0 3.2 0.00 0.00 0.00 46 1012.8
20260503231500 13 360 0.0 6.4 0.00 0.00 0.00 44 1012.7
20260503230500 14 360 0.0 3.2 0.00 0.00 0.00 43 1012.6
20260503230004 14 360 0.0 6.4 0.00 0.00 0.00 43 1012.6
20260503225500 14 360 0.0 6.4 0.00 0.00 0.00 43 1012.7
20260503225001 15 360 0.0 4.8 0.00 0.00 0.00 44 1012.6
20260503224500 15 360 0.0 4.8 0.00 0.00 0.00 43 1012.6
20260503224001 15 360 0.0 3.2 0.00 0.00 0.00 42 1012.6
20260503223500 15 360 0.0 6.4 0.00 0.00 0.00 44 1012.5
20260503222500 15 360 0.0 4.8 0.00 0.00 0.00 41 1012.7
20260503222001 15 360 0.0 9.7 0.00 0.00 0.00 44 1012.5
20260503221001 15 360 3.2 9.7 0.00 0.00 0.00 40 1012.6
20260503220500 15 360 1.6 8.0 0.00 0.00 0.00 40 1012.6
20260503220005 15 360 0.0 4.8 0.00 0.00 0.00 41 1012.6
20260503215500 15 360 1.6 8.0 0.00 0.00 0.00 42 1012.6
20260503215001 15 360 0.0 8.0 0.00 0.00 0.00 41 1012.6
20260503214500 15 360 0.0 8.0 0.00 0.00 0.00 46 1012.5
20260503214001 15 360 0.0 6.4 0.00 0.00 0.00 43 1012.4
20260503213500 15 360 3.2 6.4 0.00 0.00 0.00 43 1012.5
20260503213000 15 360 0.0 8.0 0.00 0.00 0.00 41 1012.5
20260503212501 15 360 1.6 8.0 0.00 0.00 0.00 41 1012.5
20260503212000 15 360 0.0 8.0 0.00 0.00 0.00 44 1012.4
20260503211000 15 360 0.0 8.0 0.00 0.00 0.00 42 1012.5
20260503210500 15 360 3.2 14.5 0.00 0.00 0.00 41 1012.5
20260503210005 15 360 3.2 14.5 0.00 0.00 0.00 41 1012.6
20260503205500 15 360 3.2 6.4 0.00 0.00 0.00 40 1012.3
20260503205001 15 360 1.6 6.4 0.00 0.00 0.00 40 1012.4
20260503203000 15 360 0.0 8.0 0.00 0.00 0.00 42 1012.5
20260503202500 15 360 0.0 6.4 0.00 0.00 0.00 40 1012.4
20260503201500 15 360 1.6 8.0 0.00 0.00 0.00 37 1012.6
20260503201000 15 360 0.0 9.7 0.00 0.00 0.00 42 1012.6
20260503200500 15 360 4.8 9.7 0.00 0.00 0.00 41 1012.6
20260503200004 15 360 1.6 9.7 0.00 0.00 0.00 41 1012.7
20260503194500 15 360 1.6 9.7 0.00 0.00 0.00 39 1012.8
20260503193500 15 360 6.4 8.0 0.00 0.00 0.00 38 1013.1
20260503193000 15 360 1.6 17.7 0.00 0.00 0.00 42 1013.0
20260503192500 14 360 3.2 17.7 0.00 0.00 0.00 43 1013.0
20260503192000 14 360 3.2 16.1 0.00 0.00 0.00 39 1013.1
20260503191001 14 360 1.6 9.7 0.00 0.00 0.00 45 1013.2
20260503190500 14 360 1.6 9.7 0.00 0.00 0.00 38 1013.4
20260503190002 14 360 1.6 6.4 0.00 0.00 0.00 46 1013.4
20260503185458 14 360 1.6 14.5 0.00 0.00 0.00 41 1013.3
20260503185000 14 360 3.2 14.5 0.00 0.00 0.00 45 1013.3
20260503183959 14 360 1.6 6.4 0.00 0.00 0.00 44 1013.6
20260503183458 13 360 3.2 8.0 0.00 0.00 0.00 46 1013.7
20260503182959 14 360 1.6 9.7 0.00 0.00 0.00 38 1013.9
20260503182459 14 360 1.6 14.5 0.00 0.00 0.00 40 1013.6
20260503181959 14 360 1.6 14.5 0.00 0.00 0.00 44 1013.8
20260503181459 14 360 1.6 14.5 0.00 0.00 0.00 43 1013.7
20260503180959 14 360 0.0 9.7 0.00 0.00 0.00 45 1013.8
20260503180001 14 360 1.6 4.8 0.00 0.00 0.00 42 1013.8
20260503175459 14 360 0.0 8.0 0.00 0.00 0.00 42 1013.8
20260503174959 13 360 0.0 8.0 0.00 0.00 0.00 44 1013.9
20260503174459 13 360 0.0 9.7 0.00 0.00 0.00 47 1014.0
20260503173959 13 360 1.6 9.7 0.00 0.00 0.00 39 1014.0
20260503173459 13 360 1.6 12.9 0.00 0.00 0.00 41 1014.1
20260503172959 13 360 1.6 12.9 0.00 0.00 0.00 39 1014.0
20260503172458 13 360 0.0 6.4 0.00 0.00 0.00 44 1014.2
20260503172000 12 360 0.0 8.0 0.00 0.00 0.00 45 1014.0
20260503171459 12 360 1.6 8.0 0.00 0.00 0.00 42 1014.2
20260503170959 12 360 0.0 16.1 0.00 0.00 0.00 49 1014.4
20260503170459 12 360 0.0 16.1 0.00 0.00 0.00 42 1014.3
20260503150959 11 360 0.0 12.9 0.00 0.00 0.00 54 1014.8
20260503150459 11 360 3.2 14.5 0.00 0.00 0.00 51 1014.9